Location: Izdebno
(52.6670°N, 16.2170°E)
Time: 18:05:17
(UTC+02:00)

Transit 4A - Pass Details

Date: 24 February 2024
Orbit: 871 x 972 km, 66.8° (Epoch: 21 April)

Event Time Altitude Azimuth Distance (km) Brightness Sun altitude
Rises 04:46:52 0° 275° (W) 3,574 - -20.0°
Reaches altitude 10° 04:49:56 10° 289° (WNW) 2,614 - -19.5°
Exits shadow 04:52:20 19° 309° (NW) 2,029 9.3 -19.2°
Maximum altitude 04:54:48 24° 343° (NNW) 1,774 9.3 -18.8°
Drops below altitude 10° 04:59:34 10° 36° (NE) 2,566 10.8 -18.1°
Sets 05:02:33 0° 51° (NE) 3,494 11.9 -17.6°
